Date,Q
YYYY-MM-DD,l/s
2000-01-01,0.980000000000000
2000-01-02,0.980000000000000
2000-01-03,0.980000000000000
2000-01-04,0.980000000000000
2000-01-05,0.980000000000000
2000-01-06,1.240000000000000
2000-01-07,2.080000000000000
2000-01-08,1.930000000000000
2000-01-09,1.690000000000000
2000-01-10,1.510000000000000
2000-01-11,1.390000000000000
2000-01-12,1.310000000000000
2000-01-13,1.250000000000000
2000-01-14,1.200000000000000
2000-01-15,1.170000000000000
2000-01-16,1.170000000000000
2000-01-17,1.150000000000000
2000-01-18,1.100000000000000
2000-01-19,1.070000000000000
2000-01-20,1.050000000000000
2000-01-21,0.980000000000000
2000-01-22,0.930000000000000
2000-01-23,0.930000000000000
2000-01-24,0.930000000000000
2000-01-25,0.890000000000000
2000-01-26,0.820000000000000
2000-01-27,0.800000000000000
2000-01-28,0.800000000000000
2000-01-29,0.800000000000000
2000-01-30,0.820000000000000
2000-01-31,0.850000000000000
2000-02-01,0.850000000000000
2000-02-02,0.850000000000000
2000-02-03,0.850000000000000
2000-02-04,0.850000000000000
2000-02-05,0.850000000000000
2000-02-06,0.850000000000000
2000-02-07,0.850000000000000
2000-02-08,0.850000000000000
2000-02-09,0.850000000000000
2000-02-10,0.850000000000000
2000-02-11,0.850000000000000
2000-02-12,0.850000000000000
2000-02-13,0.850000000000000
2000-02-14,0.850000000000000
2000-02-15,0.850000000000000
2000-02-16,0.850000000000000
2000-02-17,0.850000000000000
2000-02-18,0.850000000000000
2000-02-19,0.850000000000000
2000-02-20,0.710000000000000
2000-02-21,0.800000000000000
2000-02-22,0.760000000000000
2000-02-23,0.760000000000000
2000-02-24,0.760000000000000
2000-02-25,0.760000000000000
2000-02-26,0.740000000000000
2000-02-27,0.720000000000000
2000-02-28,0.720000000000000
2000-02-29,0.720000000000000
2000-03-01,0.720000000000000
2000-03-02,0.720000000000000
2000-03-03,0.720000000000000
2000-03-04,0.720000000000000
2000-03-05,0.720000000000000
2000-03-06,0.740000000000000
2000-03-07,0.760000000000000
2000-03-08,0.760000000000000
2000-03-09,0.760000000000000
2000-03-10,0.760000000000000
2000-03-11,0.760000000000000
2000-03-12,0.760000000000000
2000-03-13,0.760000000000000
2000-03-14,0.760000000000000
2000-03-15,0.760000000000000
2000-03-16,0.760000000000000
2000-03-17,0.760000000000000
2000-03-18,0.760000000000000
2000-03-19,0.760000000000000
2000-03-20,0.760000000000000
2000-03-21,0.760000000000000
2000-03-22,0.760000000000000
2000-03-23,0.760000000000000
2000-03-24,0.760000000000000
2000-03-25,0.760000000000000
2000-03-26,0.760000000000000
2000-03-27,0.760000000000000
2000-03-28,0.760000000000000
2000-03-29,0.760000000000000
2000-03-30,0.850000000000000
2000-03-31,0.980000000000000
2000-04-01,1.020000000000000
2000-04-02,1.020000000000000
2000-04-03,1.020000000000000
2000-04-04,1.020000000000000
2000-04-05,1.020000000000000
2000-04-06,1.020000000000000
2000-04-07,1.020000000000000
2000-04-08,1.020000000000000
2000-04-09,1.070000000000000
2000-04-10,1.380000000000000
2000-04-11,1.630000000000000
2000-04-12,1.660000000000000
2000-04-13,1.690000000000000
2000-04-14,1.720000000000000
2000-04-15,1.790000000000000
2000-04-16,1.930000000000000
2000-04-17,2.220000000000000
2000-04-18,2.530000000000000
2000-04-19,3.900000000000000
2000-04-20,8.120000000000000
2000-04-21,14.290000000000000
2000-04-22,24.570000000000000
2000-04-23,30.620000000000000
2000-04-24,33.710000000000000
2000-04-25,40.790000000000000
2000-04-26,35.640000000000000
2000-04-27,29.250000000000000
2000-04-28,24.910000000000000
2000-04-29,27.700000000000000
2000-04-30,30.130000000000000
2000-05-01,27.290000000000000
2000-05-02,25.660000000000000
2000-05-03,41.880000000000000
2000-05-04,41.850000000000000
2000-05-05,47.710000000000000
2000-05-06,40.160000000000000
2000-05-07,35.230000000000000
2000-05-08,39.240000000000000
2000-05-09,37.100000000000000
2000-05-10,34.520000000000000
2000-05-11,24.190000000000000
2000-05-12,17.140000000000000
2000-05-13,16.360000000000000
2000-05-14,15.980000000000000
2000-05-15,13.670000000000000
2000-05-16,11.210000000000000
2000-05-17,9.590000000000000
2000-05-18,8.440000000000000
2000-05-19,9.490000000000000
2000-05-20,18.340000000000000
2000-05-21,17.870000000000000
2000-05-22,13.170000000000000
2000-05-23,10.240000000000000
2000-05-24,8.630000000000000
2000-05-25,8.190000000000000
2000-05-26,17.950000000000000
2000-05-27,26.570000000000000
2000-05-28,16.560000000000000
2000-05-29,12.400000000000000
2000-05-30,9.680000000000000
2000-05-31,8.440000000000000
2000-06-01,7.480000000000000
2000-06-02,6.570000000000000
2000-06-03,10.970000000000000
2000-06-04,19.550000000000000
2000-06-05,12.200000000000000
2000-06-06,8.310000000000000
2000-06-07,6.580000000000000
2000-06-08,5.540000000000000
2000-06-09,4.680000000000000
2000-06-10,3.990000000000000
2000-06-11,3.580000000000000
2000-06-12,3.100000000000000
2000-06-13,3.010000000000000
2000-06-14,3.050000000000000
2000-06-15,2.820000000000000
2000-06-16,2.780000000000000
2000-06-17,3.210000000000000
2000-06-18,3.680000000000000
2000-06-19,3.900000000000000
2000-06-20,4.050000000000000
2000-06-21,3.630000000000000
2000-06-22,4.980000000000000
2000-06-23,11.110000000000000
2000-06-24,14.040000000000000
2000-06-25,12.770000000000000
2000-06-26,8.960000000000000
2000-06-27,7.950000000000000
2000-06-28,6.800000000000000
2000-06-29,5.310000000000000
2000-06-30,3.770000000000000
2000-07-01,3.090000000000000
2000-07-02,3.050000000000000
2000-07-03,2.780000000000000
2000-07-04,2.830000000000000
2000-07-05,2.660000000000000
2000-07-06,2.110000000000000
2000-07-07,1.960000000000000
2000-07-08,3.910000000000000
2000-07-09,10.050000000000000
2000-07-10,11.180000000000000
2000-07-11,7.030000000000000
2000-07-12,6.100000000000000
2000-07-13,6.780000000000000
2000-07-14,20.480000000000000
2000-07-15,21.000000000000000
2000-07-16,11.610000000000000
2000-07-17,10.570000000000000
2000-07-18,8.690000000000000
2000-07-19,13.700000000000000
2000-07-20,15.490000000000000
2000-07-21,10.910000000000000
2000-07-22,22.180000000000000
2000-07-23,36.340000000000000
2000-07-24,27.450000000000000
2000-07-25,22.020000000000000
2000-07-26,12.950000000000000
2000-07-27,8.580000000000000
2000-07-28,6.380000000000000
2000-07-29,4.920000000000000
2000-07-30,3.950000000000000
2000-07-31,3.430000000000000
2000-08-01,3.140000000000000
2000-08-02,3.200000000000000
2000-08-03,3.290000000000000
2000-08-04,2.910000000000000
2000-08-05,24.570000000000000
2000-08-06,22.600000000000000
2000-08-07,31.360000000000000
2000-08-08,42.330000000000000
2000-08-09,26.170000000000000
2000-08-10,19.410000000000000
2000-08-11,12.190000000000000
2000-08-12,12.420000000000000
2000-08-13,12.100000000000000
2000-08-14,9.070000000000000
2000-08-15,48.670000000000000
2000-08-16,61.600000000000000
2000-08-17,26.050000000000000
2000-08-18,15.750000000000000
2000-08-19,11.730000000000000
2000-08-20,13.680000000000000
2000-08-21,23.390000000000000
2000-08-22,27.300000000000000
2000-08-23,18.200000000000000
2000-08-24,12.470000000000000
2000-08-25,9.890000000000000
2000-08-26,8.040000000000000
2000-08-27,6.940000000000000
2000-08-28,6.140000000000000
2000-08-29,5.470000000000000
2000-08-30,5.210000000000000
2000-08-31,5.270000000000000
2000-09-01,5.210000000000000
2000-09-02,5.020000000000000
2000-09-03,4.440000000000000
2000-09-04,3.830000000000000
2000-09-05,3.620000000000000
2000-09-06,3.520000000000000
2000-09-07,4.630000000000000
2000-09-08,13.000000000000000
2000-09-09,16.300000000000000
2000-09-10,10.740000000000000
2000-09-11,7.510000000000000
2000-09-12,6.010000000000000
2000-09-13,5.220000000000000
2000-09-14,4.550000000000000
2000-09-15,3.990000000000000
2000-09-16,3.730000000000000
2000-09-17,3.570000000000000
2000-09-18,3.280000000000000
2000-09-19,2.960000000000000
2000-09-20,2.740000000000000
2000-09-21,2.650000000000000
2000-09-22,2.610000000000000
2000-09-23,2.490000000000000
2000-09-24,2.370000000000000
2000-09-25,2.330000000000000
2000-09-26,2.290000000000000
2000-09-27,2.210000000000000
2000-09-28,2.180000000000000
2000-09-29,2.180000000000000
2000-09-30,2.180000000000000
2000-10-01,2.180000000000000
2000-10-02,2.290000000000000
2000-10-03,2.490000000000000
2000-10-04,2.570000000000000
2000-10-05,2.570000000000000
2000-10-06,2.570000000000000
2000-10-07,2.570000000000000
2000-10-08,2.650000000000000
2000-10-09,2.870000000000000
2000-10-10,3.000000000000000
2000-10-11,2.960000000000000
2000-10-12,3.290000000000000
2000-10-13,7.890000000000000
2000-10-14,9.140000000000000
2000-10-15,6.660000000000000
2000-10-16,5.480000000000000
2000-10-17,4.840000000000000
2000-10-18,4.430000000000000
2000-10-19,3.990000000000000
2000-10-20,3.630000000000000
2000-10-21,3.470000000000000
2000-10-22,3.380000000000000
2000-10-23,3.190000000000000
2000-10-24,4.940000000000000
2000-10-25,6.780000000000000
2000-10-26,6.220000000000000
2000-10-27,5.100000000000000
2000-10-28,4.160000000000000
2000-10-29,3.630000000000000
2000-10-30,3.330000000000000
2000-10-31,7.240000000000000
2000-11-01,14.160000000000000
2000-11-02,22.870000000000000
2000-11-03,28.800000000000000
2000-11-04,29.350000000000000
2000-11-05,23.950000000000000
2000-11-06,14.540000000000000
2000-11-07,10.750000000000000
2000-11-08,9.220000000000000
2000-11-09,10.130000000000000
2000-11-10,10.900000000000000
2000-11-11,10.900000000000000
2000-11-12,9.860000000000000
2000-11-13,12.230000000000000
2000-11-14,17.450000000000000
2000-11-15,12.870000000000000
2000-11-16,9.510000000000000
2000-11-17,7.950000000000000
2000-11-18,7.230000000000000
2000-11-19,6.780000000000000
2000-11-20,6.280000000000000
2000-11-21,5.870000000000000
2000-11-22,5.530000000000000
2000-11-23,5.400000000000000
2000-11-24,7.860000000000000
2000-11-25,19.370000000000000
2000-11-26,26.260000000000000
2000-11-27,21.880000000000000
2000-11-28,20.510000000000000
2000-11-29,16.520000000000000
2000-11-30,15.570000000000000
2000-12-01,18.090000000000000
2000-12-02,17.540000000000000
2000-12-03,19.020000000000000
2000-12-04,15.300000000000000
2000-12-05,15.820000000000000
2000-12-06,20.590000000000000
2000-12-07,19.290000000000000
2000-12-08,18.250000000000000
2000-12-09,15.950000000000000
2000-12-10,12.550000000000000
2000-12-11,10.810000000000000
2000-12-12,9.490000000000000
2000-12-13,8.780000000000000
2000-12-14,17.200000000000000
2000-12-15,28.570000000000000
2000-12-16,27.370000000000000
2000-12-17,18.600000000000000
2000-12-18,13.370000000000000
2000-12-19,10.000000000000000
2000-12-20,7.800000000000000
2000-12-21,7.080000000000000
2000-12-22,7.000000000000000
2000-12-23,6.710000000000000
2000-12-24,6.080000000000000
2000-12-25,5.530000000000000
2000-12-26,5.340000000000000
2000-12-27,5.210000000000000
2000-12-28,4.790000000000000
2000-12-29,4.430000000000000
2000-12-30,4.430000000000000
2000-12-31,4.370000000000000
2001-01-01,4.260000000000000
2001-01-02,4.100000000000000
2001-01-03,4.100000000000000
2001-01-04,4.260000000000000
2001-01-05,4.210000000000000
2001-01-06,4.100000000000000
2001-01-07,4.100000000000000
2001-01-08,4.320000000000000
2001-01-09,4.380000000000000
2001-01-10,4.150000000000000
2001-01-11,3.940000000000000
2001-01-12,3.780000000000000
2001-01-13,3.630000000000000
2001-01-14,3.630000000000000
2001-01-15,3.730000000000000
2001-01-16,3.670000000000000
2001-01-17,3.670000000000000
2001-01-18,3.620000000000000
2001-01-19,3.520000000000000
2001-01-20,3.330000000000000
2001-01-21,3.090000000000000
2001-01-22,3.000000000000000
2001-01-23,3.000000000000000
2001-01-24,3.000000000000000
2001-01-25,2.960000000000000
2001-01-26,2.910000000000000
2001-01-27,2.910000000000000
2001-01-28,2.870000000000000
2001-01-29,2.740000000000000
2001-01-30,2.610000000000000
2001-01-31,2.530000000000000
2001-02-01,2.410000000000000
2001-02-02,2.330000000000000
2001-02-03,2.330000000000000
2001-02-04,2.330000000000000
2001-02-05,2.330000000000000
2001-02-06,2.330000000000000
2001-02-07,2.330000000000000
2001-02-08,2.330000000000000
2001-02-09,2.330000000000000
2001-02-10,2.330000000000000
2001-02-11,2.330000000000000
2001-02-12,2.250000000000000
2001-02-13,2.000000000000000
2001-02-14,2.490000000000000
2001-02-15,3.380000000000000
2001-02-16,3.100000000000000
2001-02-17,2.820000000000000
2001-02-18,2.650000000000000
2001-02-19,2.490000000000000
2001-02-20,2.410000000000000
2001-02-21,2.410000000000000
2001-02-22,2.370000000000000
2001-02-23,2.330000000000000
2001-02-24,2.330000000000000
2001-02-25,2.330000000000000
2001-02-26,2.330000000000000
2001-02-27,2.330000000000000
2001-02-28,2.330000000000000
2001-03-01,2.330000000000000
2001-03-02,2.330000000000000
2001-03-03,2.330000000000000
2001-03-04,2.330000000000000
2001-03-05,2.290000000000000
2001-03-06,2.250000000000000
2001-03-07,2.250000000000000
2001-03-08,2.140000000000000
2001-03-09,1.710000000000000
2001-03-10,1.310000000000000
2001-03-11,1.220000000000000
2001-03-12,1.200000000000000
2001-03-13,1.170000000000000
2001-03-14,1.170000000000000
2001-03-15,1.170000000000000
2001-03-16,1.170000000000000
2001-03-17,1.170000000000000
2001-03-18,1.170000000000000
2001-03-19,1.120000000000000
2001-03-20,1.070000000000000
2001-03-21,1.070000000000000
2001-03-22,1.050000000000000
2001-03-23,1.000000000000000
2001-03-24,0.980000000000000
2001-03-25,0.980000000000000
2001-03-26,0.870000000000000
2001-03-27,0.800000000000000
2001-03-28,0.800000000000000
2001-03-29,0.800000000000000
2001-03-30,0.800000000000000
2001-03-31,0.800000000000000
2001-04-01,0.800000000000000
2001-04-02,0.890000000000000
2001-04-03,0.980000000000000
2001-04-04,1.000000000000000
2001-04-05,1.530000000000000
2001-04-06,2.750000000000000
2001-04-07,3.380000000000000
2001-04-08,3.280000000000000
2001-04-09,3.280000000000000
2001-04-10,3.280000000000000
2001-04-11,3.190000000000000
2001-04-12,2.960000000000000
2001-04-13,2.740000000000000
2001-04-14,2.610000000000000
2001-04-15,2.530000000000000
2001-04-16,2.410000000000000
2001-04-17,2.250000000000000
2001-04-18,2.070000000000000
2001-04-19,1.960000000000000
2001-04-20,1.960000000000000
2001-04-21,1.960000000000000
2001-04-22,2.000000000000000
2001-04-23,2.300000000000000
2001-04-24,6.830000000000000
2001-04-25,14.420000000000000
2001-04-26,20.510000000000000
2001-04-27,24.820000000000000
2001-04-28,31.540000000000000
2001-04-29,34.630000000000000
2001-04-30,41.230000000000000
2001-05-01,36.760000000000000
2001-05-02,39.890000000000000
2001-05-03,44.100000000000000
2001-05-04,35.370000000000000
2001-05-05,26.970000000000000
2001-05-06,22.640000000000000
2001-05-07,21.410000000000000
2001-05-08,21.720000000000000
2001-05-09,18.280000000000000
2001-05-10,14.110000000000000
2001-05-11,11.910000000000000
2001-05-12,10.420000000000000
2001-05-13,9.140000000000000
2001-05-14,7.800000000000000
2001-05-15,6.780000000000000
2001-05-16,6.140000000000000
2001-05-17,5.660000000000000
2001-05-18,5.800000000000000
2001-05-19,21.390000000000000
2001-05-20,31.950000000000000
2001-05-21,25.650000000000000
2001-05-22,14.540000000000000
2001-05-23,11.400000000000000
2001-05-24,9.780000000000000
2001-05-25,8.280000000000000
2001-05-26,7.470000000000000
2001-05-27,8.580000000000000
2001-05-28,10.610000000000000
2001-05-29,10.520000000000000
2001-05-30,8.730000000000000
2001-05-31,7.100000000000000
2001-06-01,6.010000000000000
2001-06-02,10.270000000000000
2001-06-03,11.600000000000000
2001-06-04,10.710000000000000
2001-06-05,8.830000000000000
2001-06-06,6.800000000000000
2001-06-07,5.610000000000000
2001-06-08,6.590000000000000
2001-06-09,6.590000000000000
2001-06-10,9.420000000000000
2001-06-11,27.040000000000000
2001-06-12,31.090000000000000
2001-06-13,17.760000000000000
2001-06-14,25.550000000000000
2001-06-15,33.750000000000000
2001-06-16,20.120000000000000
2001-06-17,12.420000000000000
2001-06-18,9.170000000000000
2001-06-19,7.330000000000000
2001-06-20,6.020000000000000
2001-06-21,4.490000000000000
2001-06-22,3.380000000000000
2001-06-23,2.960000000000000
2001-06-24,2.490000000000000
2001-06-25,2.900000000000000
2001-06-26,3.080000000000000
2001-06-27,2.260000000000000
2001-06-28,1.890000000000000
2001-06-29,1.690000000000000
2001-06-30,1.740000000000000
2001-07-01,1.930000000000000
2001-07-02,1.660000000000000
2001-07-03,1.390000000000000
2001-07-04,1.230000000000000
2001-07-05,1.310000000000000
2001-07-06,1.180000000000000
2001-07-07,1.000000000000000
2001-07-08,0.890000000000000
2001-07-09,0.780000000000000
2001-07-10,0.690000000000000
2001-07-11,1.020000000000000
2001-07-12,1.830000000000000
2001-07-13,1.800000000000000
2001-07-14,2.240000000000000
2001-07-15,2.580000000000000
2001-07-16,2.410000000000000
2001-07-17,3.550000000000000
2001-07-18,9.610000000000000
2001-07-19,13.570000000000000
2001-07-20,9.720000000000000
2001-07-21,6.160000000000000
2001-07-22,4.080000000000000
2001-07-23,5.000000000000000
2001-07-24,5.550000000000000
2001-07-25,4.140000000000000
2001-07-26,3.740000000000000
2001-07-27,3.160000000000000
2001-07-28,2.310000000000000
2001-07-29,2.480000000000000
2001-07-30,10.510000000000000
2001-07-31,8.380000000000000
2001-08-01,4.620000000000000
2001-08-02,2.990000000000000
2001-08-03,2.150000000000000
2001-08-04,2.630000000000000
2001-08-05,5.700000000000000
2001-08-06,7.790000000000000
2001-08-07,6.460000000000000
2001-08-08,4.650000000000000
2001-08-09,3.630000000000000
2001-08-10,6.950000000000000
2001-08-11,8.450000000000000
2001-08-12,5.840000000000000
2001-08-13,4.290000000000000
2001-08-14,3.380000000000000
2001-08-15,2.750000000000000
2001-08-16,2.220000000000000
2001-08-17,1.930000000000000
2001-08-18,1.580000000000000
2001-08-19,1.250000000000000
2001-08-20,1.120000000000000
2001-08-21,1.200000000000000
2001-08-22,1.330000000000000
2001-08-23,1.250000000000000
2001-08-24,1.100000000000000
2001-08-25,0.980000000000000
2001-08-26,0.930000000000000
2001-08-27,24.090000000000000
2001-08-28,34.800000000000000
2001-08-29,12.920000000000000
2001-08-30,7.330000000000000
2001-08-31,5.110000000000000
2001-09-01,4.860000000000000
2001-09-02,5.150000000000000
2001-09-03,5.160000000000000
2001-09-04,5.400000000000000
2001-09-05,4.850000000000000
2001-09-06,4.000000000000000
2001-09-07,6.940000000000000
2001-09-08,10.930000000000000
2001-09-09,22.980000000000000
2001-09-10,39.850000000000000
2001-09-11,21.700000000000000
2001-09-12,15.380000000000000
2001-09-13,19.010000000000000
2001-09-14,121.260000000000000
2001-09-15,117.120000000000000
2001-09-16,93.600000000000000
2001-09-17,40.000000000000000
2001-09-18,24.820000000000000
2001-09-19,20.680000000000000
2001-09-20,18.160000000000000
2001-09-21,16.360000000000000
2001-09-22,14.890000000000000
2001-09-23,13.740000000000000
2001-09-24,12.640000000000000
2001-09-25,11.700000000000000
2001-09-26,10.900000000000000
2001-09-27,10.410000000000000
2001-09-28,9.940000000000000
2001-09-29,9.130000000000000
2001-09-30,8.520000000000000
2001-10-01,7.870000000000000
2001-10-02,15.380000000000000
2001-10-03,13.320000000000000
2001-10-04,13.130000000000000
2001-10-05,13.970000000000000
2001-10-06,12.230000000000000
2001-10-07,10.900000000000000
2001-10-08,18.780000000000000
2001-10-09,20.080000000000000
2001-10-10,27.100000000000000
2001-10-11,29.640000000000000
2001-10-12,19.900000000000000
2001-10-13,15.770000000000000
2001-10-14,13.200000000000000
2001-10-15,11.500000000000000
2001-10-16,10.600000000000000
2001-10-17,10.220000000000000
2001-10-18,9.670000000000000
2001-10-19,8.950000000000000
2001-10-20,8.610000000000000
2001-10-21,8.350000000000000
2001-10-22,7.860000000000000
2001-10-23,7.240000000000000
2001-10-24,6.780000000000000
2001-10-25,6.490000000000000
2001-10-26,6.280000000000000
2001-10-27,7.800000000000000
2001-10-28,9.130000000000000
2001-10-29,8.610000000000000
2001-10-30,8.030000000000000
2001-10-31,7.540000000000000
2001-11-01,7.010000000000000
2001-11-02,6.490000000000000
2001-11-03,6.350000000000000
2001-11-04,6.210000000000000
2001-11-05,5.800000000000000
2001-11-06,5.530000000000000
2001-11-07,5.340000000000000
2001-11-08,4.910000000000000
2001-11-09,4.490000000000000
2001-11-10,4.210000000000000
2001-11-11,4.380000000000000
2001-11-12,4.550000000000000
2001-11-13,4.430000000000000
2001-11-14,4.320000000000000
2001-11-15,4.210000000000000
2001-11-16,4.210000000000000
2001-11-17,4.260000000000000
2001-11-18,4.320000000000000
2001-11-19,4.320000000000000
2001-11-20,4.260000000000000
2001-11-21,4.210000000000000
2001-11-22,4.610000000000000
2001-11-23,4.840000000000000
2001-11-24,4.600000000000000
2001-11-25,4.600000000000000
2001-11-26,4.720000000000000
2001-11-27,4.780000000000000
2001-11-28,4.780000000000000
2001-11-29,4.780000000000000
2001-11-30,4.720000000000000
2001-12-01,4.660000000000000
2001-12-02,4.970000000000000
2001-12-03,5.270000000000000
2001-12-04,5.400000000000000
2001-12-05,5.470000000000000
2001-12-06,5.270000000000000
2001-12-07,5.020000000000000
2001-12-08,4.840000000000000
2001-12-09,4.720000000000000
2001-12-10,4.600000000000000
2001-12-11,4.270000000000000
2001-12-12,3.830000000000000
2001-12-13,3.570000000000000
2001-12-14,3.280000000000000
2001-12-15,3.090000000000000
2001-12-16,3.050000000000000
2001-12-17,3.000000000000000
2001-12-18,2.830000000000000
2001-12-19,2.740000000000000
2001-12-20,2.690000000000000
2001-12-21,2.650000000000000
2001-12-22,2.650000000000000
2001-12-23,2.650000000000000
2001-12-24,2.650000000000000
2001-12-25,2.650000000000000
2001-12-26,2.610000000000000
2001-12-27,2.570000000000000
2001-12-28,2.570000000000000
2001-12-29,2.570000000000000
2001-12-30,2.570000000000000
2001-12-31,2.570000000000000
2002-01-01,2.680000000000000
2002-01-02,2.680000000000000
2002-01-03,2.680000000000000
2002-01-04,2.630000000000000
2002-01-05,2.320000000000000
2002-01-06,2.010000000000000
2002-01-07,1.900000000000000
2002-01-08,2.040000000000000
2002-01-09,2.310000000000000
2002-01-10,2.850000000000000
2002-01-11,4.780000000000000
2002-01-12,5.970000000000000
2002-01-13,6.180000000000000
2002-01-14,5.900000000000000
2002-01-15,6.400000000000000
2002-01-16,6.250000000000000
2002-01-17,5.510000000000000
2002-01-18,4.920000000000000
2002-01-19,4.680000000000000
2002-01-20,4.220000000000000
2002-01-21,3.830000000000000
2002-01-22,3.620000000000000
2002-01-23,3.270000000000000
2002-01-24,2.900000000000000
2002-01-25,2.680000000000000
2002-01-26,2.550000000000000
2002-01-27,2.510000000000000
2002-01-28,2.510000000000000
2002-01-29,2.350000000000000
2002-01-30,1.980000000000000
2002-01-31,1.700000000000000
2002-02-01,1.600000000000000
2002-02-02,1.570000000000000
2002-02-03,1.570000000000000
2002-02-04,1.570000000000000
2002-02-05,1.600000000000000
2002-02-06,1.630000000000000
2002-02-07,1.630000000000000
2002-02-08,1.630000000000000
2002-02-09,1.660000000000000
2002-02-10,1.870000000000000
2002-02-11,2.010000000000000
2002-02-12,1.970000000000000
2002-02-13,1.930000000000000
2002-02-14,1.860000000000000
2002-02-15,1.830000000000000
2002-02-16,1.940000000000000
2002-02-17,2.150000000000000
2002-02-18,2.270000000000000
2002-02-19,2.190000000000000
2002-02-20,2.080000000000000
2002-02-21,2.040000000000000
2002-02-22,2.040000000000000
2002-02-23,2.040000000000000
2002-02-24,2.010000000000000
2002-02-25,1.930000000000000
2002-02-26,1.900000000000000
2002-02-27,1.900000000000000
2002-02-28,1.900000000000000
2002-03-01,1.860000000000000
2002-03-02,1.830000000000000
2002-03-03,1.800000000000000
2002-03-04,1.730000000000000
2002-03-05,1.700000000000000
2002-03-06,1.700000000000000
2002-03-07,1.700000000000000
2002-03-08,1.630000000000000
2002-03-09,1.570000000000000
2002-03-10,1.570000000000000
2002-03-11,1.570000000000000
2002-03-12,1.570000000000000
2002-03-13,1.570000000000000
2002-03-14,1.570000000000000
2002-03-15,1.570000000000000
2002-03-16,1.570000000000000
2002-03-17,1.570000000000000
2002-03-18,1.570000000000000
2002-03-19,1.700000000000000
2002-03-20,2.170000000000000
2002-03-21,2.470000000000000
2002-03-22,2.390000000000000
2002-03-23,2.310000000000000
2002-03-24,2.270000000000000
2002-03-25,2.270000000000000
2002-03-26,2.230000000000000
2002-03-27,2.190000000000000
2002-03-28,2.900000000000000
2002-03-29,4.360000000000000
2002-03-30,5.040000000000000